Vertical_Velocity
5 3 10 3 10 14 0 3 -2 5 -11 -12 -1 6 3 11 -9 -0 -0 0 1 -4
5 7 4 8 2 -1 -8 -8 -0 3 10 19 7 5 5 -11 5 -1 3 -2 1 0
3 3 12 -4 -7 -2 2 6 4 1 3 15 -5 9 4 -3 -1 3 1 4 3 -2
-3 4 -5 -8 7 8 4 2 0 6 6 2 5 -1 0 5 -3 -0 3 3 2 -3
1 6 1 1 0 6 6 3 3 3 -2 -5 0 -3 -3 -3 2 4 3 -3 -7 0
-3 -8 -1 -1 4 1 -1 1 1 1 -2 6 4 -2 0 3 15 12 2 -0 -4 -3
1 2 3 2 1 2 0 -0 4 5 -1 -7 16 -3 2 -0 8 2 -1 -1 -2 -1
1 1 2 1 1 1 3 1 2 3 -3 5 -9 0 7 21 7 -0 -2 1 2 0
1 1 -0 -2 -1 1 2 1 -1 1 3 8 3 0 20 -5 -0 2 -1 1 2 2
0 -2 -1 -1 -1 0 2 -1 -3 -4 15 1 9 -4 -0 -0 -1 -1 -0 1 1 1
-2 -2 -1 0 -0 -1 -2 -2 -1 1 -0 -3 1 -1 -1 -0 -0 -1 0 1 2 -1
-1 0 -1 -0 1 -1 0 -1 -0 -1 -3 -2 -2 -1 -1 -1 -1 -0 0 1 -1 -1
-3 -2 -1 -0 0 0 1 -0 0 2 -0 -2 -3 0 0 -3 -5 -5 -0 3 -1 -2
-1 -1 -1 -1 -2 -2 -2 -3 -3 -4 -1 1 -2 1 1 1 -2 -6 -5 0 2 3
Height
3134 3133 3132 3131 3132 3128 3127 3126 3125 3124 3119 3119 3119 3116 3114 3112 3110 3109 3106 3102 3100 3096
3127 3127 3126 3125 3124 3122 3122 3120 3119 3117 3115 3112 3112 3109 3107 3105 3103 3100 3098 3093 3090 3087
3121 3120 3120 3118 3118 3115 3115 3114 3112 3109 3106 3104 3101 3099 3099 3097 3094 3091 3088 3084 3080 3077
3115 3114 3112 3111 3111 3110 3108 3106 3104 3100 3096 3096 3093 3094 3091 3089 3085 3081 3078 3075 3072 3068
3109 3108 3107 3106 3104 3103 3101 3098 3096 3093 3091 3089 3087 3085 3082 3080 3074 3071 3068 3066 3063 3060
3103 3103 3101 3099 3097 3095 3092 3090 3088 3086 3082 3082 3079 3078 3074 3070 3067 3065 3061 3058 3053 3050
3096 3095 3093 3090 3088 3085 3083 3081 3079 3077 3075 3073 3070 3067 3065 3061 3060 3056 3053 3049 3045 3040
3088 3086 3084 3081 3078 3075 3073 3071 3070 3068 3066 3063 3062 3058 3054 3054 3050 3047 3043 3040 3036 3031
3080 3077 3075 3072 3070 3068 3066 3063 3061 3059 3058 3053 3052 3049 3047 3045 3041 3037 3034 3030 3026 3022
3071 3069 3066 3064 3062 3060 3057 3055 3053 3051 3048 3046 3043 3041 3038 3035 3031 3027 3024 3021 3017 3014
3063 3060 3058 3055 3053 3051 3048 3047 3045 3042 3039 3037 3035 3032 3030 3026 3021 3018 3015 3012 3008 3005
3055 3053 3050 3048 3046 3043 3041 3038 3036 3034 3031 3029 3026 3024 3021 3017 3012 3008 3006 3002 2998 2995
3047 3045 3042 3040 3038 3036 3033 3031 3029 3026 3023 3020 3018 3015 3012 3007 3001 2998 2994 2991 2986 2982
3038 3036 3034 3032 3030 3028 3025 3023 3020 3018 3015 3012 3009 3007 3002 2997 2991 2986 2981 2978 2974 2970